Home   Weather   Edinburgh   Past weeks

Flag for United Kingdom Past Weather in Edinburgh, Scotland, United Kingdom — Yesterday and Last 2 Weeks

Now
50 °F

Passing clouds.


Feels Like: 49 °F
Forecast: 51 / 63 °F
Wind: 3 mph from Northeast

Location: Edinburgh Airport

Current Time: Jul 25, 2017 at 3:58:24 am

Latest Report: Jul 25, 2017 at 3:20 am


Visibility: N/A

Pressure: 30.07 "Hg

Humidity: 100%

Dew Point: 50 °F

Location of EdinburghLocation

Past Weather in Edinburgh — Graph

°F

Edinburgh Temperature Yesterday

Maximum temperature yesterday: 66 °F (at 12:20 pm)
Minimum temperature yesterday: 50 °F (at 5:20 am)
Average temperature yesterday: 60 °F

High & Low Weather Summary for the Past Weeks

 TemperatureHumidityPressure
High77 °F (Jul 18, 5:50 pm)100% (Jul 10, 2:50 am)30.21 "Hg (Jul 10, 2:50 am)
Low43 °F (Jul 12, 2:20 am)46% (Jul 12, 6:50 pm)29.56 "Hg (Jul 19, 10:20 pm)
Average58 °F83%29.92 "Hg
* Reported Jul 10 2:20 am — Jul 25 2:50 am, Edinburgh. Weather by CustomWeather, © 2017

Note: Actual official high and low records may vary slightly from our data, if they occured in-between our weather recording intervals... More about our weather records

Advertising

Edinburgh Weather History for the Previous 24 Hours

Scroll right to see more
 ConditionsComfort  
Time TempWeatherWind HumidityBarometerVisibility
2:50 am
Tue, Jul 25
50 °FPassing clouds.3 mph100%30.07 "HgN/A
2:20 am50 °FClear.No wind94%30.09 "Hg10 mi
1:50 am50 °FClear.1 mph94%30.09 "Hg10 mi
1:20 am52 °FClear.3 mph94%30.09 "Hg10 mi
12:50 am52 °FCool.3 mph88%30.09 "HgN/A
12:20 am54 °FClear.6 mph88%30.09 "Hg10 mi
11:50 pm
Mon, Jul 24
52 °FClear.5 mph88%30.09 "Hg10 mi
11:20 pm55 °FClear.7 mph82%30.09 "Hg10 mi
10:50 pm55 °FClear.8 mph82%30.09 "Hg10 mi
10:20 pm57 °FClear.9 mph82%30.09 "Hg10 mi
9:50 pm57 °FClear.9 mph82%30.09 "Hg10 mi
9:20 pm57 °FSunny.8 mph82%30.09 "Hg10 mi
8:50 pm59 °FSunny.10 mph77%30.07 "Hg10 mi
7:50 pm61 °FPassing clouds.13 mph72%30.07 "HgN/A
7:20 pm63 °FPassing clouds.13 mph73%30.07 "HgN/A
6:50 pm63 °FPassing clouds.15 mph73%30.07 "HgN/A
6:20 pm64 °FPassing clouds.13 mph68%30.07 "HgN/A
5:50 pm64 °FPassing clouds.13 mph68%30.07 "HgN/A
5:20 pm64 °FMild.14 mph68%30.04 "HgN/A
4:50 pm66 °FPassing clouds.13 mph64%30.04 "HgN/A
4:20 pm66 °FPassing clouds.13 mph64%30.04 "HgN/A
3:50 pm66 °FPassing clouds.13 mph64%30.04 "HgN/A
3:20 pm66 °FPassing clouds.12 mph68%30.04 "HgN/A
2:50 pm66 °FPassing clouds.12 mph68%30.04 "HgN/A
2:20 pm64 °FPassing clouds.12 mph73%30.04 "HgN/A
1:50 pm66 °FSunny.10 mph68%30.04 "Hg10 mi
1:20 pm64 °FSunny.10 mph68%30.04 "Hg10 mi
12:50 pm64 °FSunny.12 mph73%30.04 "Hg10 mi
12:20 pm66 °FPassing clouds.8 mph68%30.04 "HgN/A
11:50 am64 °FPassing clouds.7 mph68%30.04 "HgN/A
11:20 am64 °FPassing clouds.8 mph68%30.04 "HgN/A
10:50 am64 °FPassing clouds.7 mph73%30.04 "HgN/A
10:20 am63 °FPassing clouds.8 mph77%30.04 "HgN/A
9:50 am63 °FPassing clouds.6 mph73%30.04 "HgN/A
9:20 am63 °FPassing clouds.5 mph73%30.04 "HgN/A
8:50 am63 °FPassing clouds.6 mph73%30.04 "HgN/A
8:20 am61 °FSunny.2 mph83%30.01 "Hg10 mi
7:50 am59 °FSunny.1 mph88%30.01 "Hg10 mi
7:20 am55 °FSunny.2 mph94%30.01 "Hg10 mi
6:50 am54 °FSunny.2 mph100%30.01 "Hg10 mi
6:20 am52 °FSunny.No wind100%30.01 "Hg10 mi
5:50 am50 °FFog.1 mph100%30.01 "HgN/A
5:20 am50 °FFog.3 mph100%30.01 "HgN/A
4:50 am52 °FFog.2 mph94%30.01 "HgN/A
4:20 am54 °FPassing clouds.2 mph94%30.01 "HgN/A
3:50 am54 °FPassing clouds.1 mph94%30.01 "HgN/A
3:20 am54 °FClear.1 mph94%30.01 "Hg10 mi
Weather by CustomWeather, © 2017

See weather overviewHow to use our weather pages